Location: Chippewa Lake
(41.0698°N, 81.9010°W)
Time: 02:11:15
(UTC+00:00)

Resurs 1-4 Rocket - Pass Details

Date: 09 May 2021
Orbit: 800 x 813 km, 98.6° (Epoch: 24 June)

Event Time Altitude Azimuth Distance (km) Brightness Sun altitude
Rises 06:54:48 0° 15° (NNE) 3,317 6.5 -27.8°
Reaches altitude 10° 06:57:09 10° 17° (NNE) 2,383 5.5 -27.6°
Maximum altitude 07:02:25 75° 103° (ESE) 831 2.1 -27.2°
Enters shadow 07:02:31 75° 115° (ESE) 832 2.0 -27.2°
